Location: Austin
(30.3000°N, 97.7500°W)
Time: 01:30:52
(UTC-05:00)

Feng Yun 1-1 Rocket - Pass Details

Date: 15 May 2024
Orbit: 830 x 932 km, 99.1° (Epoch: 29 May)

Event Time Altitude Azimuth Distance (km) Brightness Sun altitude
Exits shadow 21:34:02 11° 167° (SSE) 2,515 6.2 -15.2°
Maximum altitude 21:39:39 86° 256° (WSW) 928 4.4 -16.2°
Drops below altitude 10° 21:45:35 10° 346° (NNW) 2,638 7.5 -17.2°
Sets 21:48:02 0° 347° (NNW) 3,588 8.3 -17.7°
